Location: Stonelick Lake State Park
(39.2170°N, 84.0850°W)
Time: 18:59:05
(UTC-04:00)

Daily predictions for brighter satellites

Satellite Brightness Start Highest point End
(mag) Time Altitude Azimuth Time Altitude Azimuth Time Altitude Azimuth
Okean 2 3.4 21:20:15 10° S 21:24:26 87° E 21:28:38 10° N
H-2A R/B 2.7 21:20:38 10° SE 21:24:37 40° ENE 21:28:43 10° N
Cosmos 2369 Rocket 3.7 21:22:42 10° N 21:27:00 22° NE 21:31:15 10° ESE
Cosmos 1666 2.7 21:27:58 10° N 21:31:53 69° E 21:35:45 10° SSE
Cosmos 1626 Rocket 3.8 21:27:42 10° SSE 21:31:58 50° E 21:36:14 10° NNE
SJ-11-01 4.5 21:27:58 10° SSE 21:32:31 55° ENE 21:37:06 10° N
Cosmos 2228 3.1 21:28:37 10° N 21:33:03 74° E 21:37:26 10° SSE
Timation 1 Rocket 4.4 21:29:49 10° NNW 21:35:52 81° ENE 21:41:51 10° SSE
SL-16 R/B 3.6 21:30:58 10° SW 21:36:19 43° WNW 21:41:43 10° N
Lacrosse 4 Rocket 3.0 21:34:01 10° SE 21:36:25 15° ESE 21:38:50 10° ENE
CZ-2C R/B 0.3 21:35:12 10° SSE 21:37:28 77° ENE 21:39:45 10° N
Cosmos 2034 Rocket 4.1 21:32:09 10° N 21:38:30 68° E 21:44:46 10° SSE
SeaSat 1 3.7 21:38:54 10° ESE 21:43:06 29° NE 21:47:18 10° N
GRACE-1 4.4 21:46:15 10° NNE 21:48:59 41° E 21:51:25 12° SSE
GRACE-2 4.4 21:46:42 10° NNE 21:49:26 41° E 21:51:51 12° SSE
Nimbus 7 Rocket 4.5 21:45:23 10° NNE 21:51:16 60° ESE 21:57:03 10° S
CZ-4B R/B 4.3 21:51:51 10° NE 21:56:24 31° E 22:00:41 11° SSE
YAOGAN 6 4.3 21:54:35 13° ESE 21:56:41 20° ENE 21:59:30 10° NNE
H-2A R/B 4.2 21:57:24 10° ENE 21:58:22 10° ENE 21:59:19 10° NE
Atlas Centaur 2 3.3 21:52:39 10° WSW 21:59:18 43° S 22:06:34 12° ESE
Cosmos 1461 3.8 21:57:11 10° NW 22:01:15 44° WSW 22:05:02 10° S
Cosmos 1515 4.1 21:58:34 11° SSE 22:02:10 45° E 22:05:52 10° NNE
ATLAS 3B R/B 3.1 21:57:59 10° S 22:05:21 51° ESE 22:12:37 10° NE
Cosmos 1603 4.2 22:00:01 10° SSW 22:05:35 64° WNW 22:11:10 10° NNE
BREEZE-M DEB (TANK) 2.7 22:00:36 10° WSW 22:05:36 69° NW 22:07:51 10° NE
ISS -2.2 22:02:53 10° WSW 22:06:03 47° NW 22:09:14 10° NE
SPOT 1/Viking Rocket 4.5 22:03:19 16° SE 22:06:48 33° ENE 22:11:23 10° N
ALOS 4.1 22:03:49 10° SSW 22:07:50 29° W 22:11:54 10° NW
GEOS 3 Rocket 4.2 22:06:57 12° SSE 22:11:47 54° WSW 22:16:55 10° NW
MetOp-A 4.3 22:13:38 17° SSE 22:17:39 60° ENE 22:22:56 10° N
Cosmos 1939 Rocket 3.3 22:14:42 11° S 22:18:35 64° WSW 22:22:43 10° NNW
PSLV R/B 3.7 22:15:37 10° W 22:19:09 64° N 22:22:22 12° ENE
Milstar 3 Cent rocket 4.3 22:17:19 10° WSW 22:21:12 15° SW 22:24:17 10° S
ERS-1 Rocket 4.1 22:18:31 10° SSW 22:23:14 40° W 22:27:58 10° NNW
Cosmos 1943 Rocket 3.6 22:19:55 10° N 22:24:23 24° NE 22:27:31 15° E
USA 234 3.9 22:19:11 13° ESE 22:24:45 48° NE 22:31:00 10° NW
BREEZE M DEB (TANK) 1.9 22:23:03 10° WNW 22:25:14 44° NNE 22:25:59 28° ENE
Cosmos 1758 Rocket 4.2 22:23:41 24° SE 22:25:32 35° E 22:29:31 10° NNE
SPOT 5 2.6 22:23:00 18° SSE 22:26:16 85° WSW 22:30:36 10° NNW
Cosmos 1943 3.1 22:21:15 10° SSW 22:26:54 79° ESE 22:32:37 10° NNE
CZ-4 SHROUD 3.7 22:28:45 22° S 22:30:35 55° W 22:33:42 10° NNW
Terra 3.5 22:31:28 16° E 22:33:15 20° ENE 22:36:38 10° NNE
Envisat 3.4 22:31:24 14° S 22:35:43 60° W 22:40:46 10° NNW
Cosmos 1346 Rocket 2.8 22:34:25 28° SSE 22:36:16 60° E 22:40:09 10° NNE
COSMOS 2455 3.8 22:32:33 10° SW 22:38:23 51° WNW 22:44:15 10° NNE
Cosmos 407 Rocket 3.4 22:34:31 12° S 22:39:26 67° ESE 22:44:37 10° NNE
Cosmos 1825 Rocket 3.6 22:38:25 16° S 22:42:00 83° W 22:46:27 10° N
PSLV R/B 4.4 22:41:01 21° SSW 22:42:35 38° W 22:45:32 10° NNW
SL-27 R/B 4.1 22:46:07 20° ENE 22:46:07 20° ENE 22:47:43 10° NE
Cosmos 1842 4.1 22:44:54 31° E 22:45:08 31° E 22:48:37 10° NNE
USA 238 DEB 4.1 22:43:03 18° S 22:47:49 40° ESE 22:54:18 10° NE
USA 238 4.2 22:43:19 19° S 22:47:55 40° ESE 22:54:24 10° NE
Meteor 1-21 4.3 22:47:54 26° SSE 22:51:10 60° E 22:56:53 10° NNE
ARGOS 3.1 22:55:38 32° SSE 22:58:15 81° ENE 23:03:43 10° N
Cosmos 1954 Rocket 4.1 22:57:35 31° S 22:59:56 58° ESE 23:05:08 10° NNE
IGS 5A 4.4 23:05:31 32° E 23:05:59 33° ENE 23:09:43 10° N
Cosmos 1766 3.2 23:06:09 10° N 23:10:10 85° E 23:10:50 61° SSE
Cosmos 1758 4.0 23:06:54 10° N 23:10:47 39° ENE 23:10:56 38° E
Cosmos 2369 Rocket 2.6 23:05:51 10° NNW 23:11:24 56° WSW 23:13:56 31° S
Nadezhda 4 Rocket 4.4 23:11:18 35° SE 23:13:11 45° E 23:19:09 10° NNE
Lacrosse 4 Rocket 2.6 23:10:57 10° SW 23:14:45 40° WNW 23:18:38 10° NNE
Cosmos 2084 4.2 23:10:55 10° NNW 23:14:52 40° NE 23:15:41 36° E
SL-23 DEB 4.4 23:13:00 10° WSW 23:19:22 74° NW 23:23:09 10° NE
SeaSat 1 3.5 23:18:29 26° SSW 23:20:28 37° WSW 23:25:03 10° NW
Cosmos 1741 Rocket 4.4 23:21:13 42° ESE 23:21:32 43° ESE 23:26:33 10° NNE
NOAA 11 4.3 23:20:26 36° S 23:22:37 68° WSW 23:28:02 10° NNW
SL-24 R/B 4.4 23:17:56 10° N 23:22:57 82° E 23:24:40 45° S
SL-08 RB Rocket 4.0 23:25:25 44° SSW 23:26:38 59° W 23:31:07 10° NNW
Geosat 3.9 23:24:06 10° NNE 23:29:09 89° ESE 23:31:13 37° SSW
Spot 2 4.4 23:24:29 10° NNE 23:29:22 68° ESE 23:30:11 57° SSE
YAOGAN 6 4.5 23:29:04 21° WSW 23:30:07 24° W 23:33:12 10° NW
H-2A R/B 1.8 23:36:00 60° SSE 23:36:56 90° ENE 23:42:02 10° NNW
Cosmos 1470 4.4 23:34:00 10° NNE 23:36:33 24° ENE 23:36:33 24° ENE
Cosmos-2242 3.0 23:33:25 10° N 23:37:50 76° W 23:38:15 68° SW
Cosmos 1850 Rocket 3.9 23:37:40 60° SE 23:38:13 65° ESE 23:43:24 10° NNE
Cosmos 1805 3.4 23:35:53 10° N 23:39:29 69° NNE 23:39:29 69° NNE
Cosmos 1570 Rocket 4.1 23:35:54 10° NNW 23:41:15 67° ENE 23:42:07 57° ESE
CZ-4C R/B 4.2 23:41:12 41° WSW 23:41:43 43° W 23:45:36 10° NNW
Cosmos 1023 Rocket 4.4 23:41:01 51° SSW 23:42:25 88° WNW 23:47:42 10° NNE
ISS 0.1 23:41:33 10° NW 23:43:08 13° NNW 23:44:42 10° NNE
Cosmos 2279 Rocket 4.4 23:37:06 10° NNW 23:43:12 57° W 23:45:51 33° SSW
CZ-4C R/B 3.4 23:45:27 26° E 23:45:27 26° E 23:48:47 10° NE
Cosmos 1544 4.3 23:43:13 10° N 23:45:56 37° NE 23:45:56 37° NE
COSMOS 2406 3.1 23:45:47 44° SSW 23:47:41 88° WNW 23:53:27 10° NNE
Cosmos 1607 3.8 23:45:43 43° SSW 23:47:53 77° ESE 23:54:07 10° NE
SAR-Lupe-2 4.4 23:49:00 48° WNW 23:49:00 48° WNW 23:52:00 10° NNW
Atlas Centaur 2 3.4 23:41:19 10° WSW 23:48:33 41° S 23:49:12 40° S
Cosmos 1140 Rocket 3.5 23:47:56 48° SW 23:49:24 77° WNW 23:54:40 10° NNE
